This is the latest recevied weather packets stored in our database for station/object K8GLX. If no packets are shown the sender has not sent any weather packets the latest 10 day(s).
| Time | Temp. | Humidity | Pressure | Rain* | Wind** | Luminosity | Snow |
|---|---|---|---|---|---|---|---|
| 1777310228 | 20° C | 40% | 1018.6 hPa | 0 mm | - | 786 W/m² | - |
| 1777309933 | 20° C | 39% | 1018.6 hPa | 0 mm | - | 756 W/m² | - |
| 1777309628 | 20° C | 38% | 1018.7 hPa | 0 mm | - | 761 W/m² | - |
| 1777309334 | 20° C | 39% | 1018.5 hPa | 0 mm | - | 745 W/m² | - |
| 1777309027 | 20° C | 38% | 1018.5 hPa | 0 mm | - | 744 W/m² | - |
| 1777308733 | 20° C | 39% | 1018.7 hPa | 0 mm | - | 737 W/m² | - |
| 1777308427 | 19.44° C | 41% | 1018.7 hPa | 0 mm | - | 718 W/m² | - |
| 1777308134 | 18.89° C | 42% | 1018.5 hPa | 0 mm | - | 692 W/m² | - |
| 1777307827 | 19.44° C | 42% | 1018.7 hPa | 0 mm | - | 694 W/m² | - |
| 1777307533 | 18.89° C | 43% | 1018.6 hPa | 0 mm | - | 694 W/m² | - |
| 1777307232 | 18.89° C | 43% | 1018.7 hPa | 0 mm | - | 689 W/m² | - |
| 1777306934 | 18.89° C | 42% | 1018.8 hPa | 0 mm | - | 669 W/m² | - |
| 1777306628 | 18.33° C | 44% | 1018.7 hPa | 0 mm | - | 695 W/m² | - |
| 1777306333 | 18.33° C | 46% | 1019 hPa | 0 mm | - | 695 W/m² | - |
| 1777306028 | 18.33° C | 46% | 1018.8 hPa | 0 mm | - | 725 W/m² | - |
| 1777305733 | 17.78° C | 47% | 1019.2 hPa | 0 mm | - | 731 W/m² | - |
| 1777305428 | 17.78° C | 48% | 1019 hPa | 0 mm | - | 735 W/m² | - |
| 1777305134 | 17.22° C | 49% | 1019.3 hPa | 0 mm | - | 739 W/m² | - |
| 1777304828 | 17.22° C | 49% | 1019.2 hPa | 0 mm | - | 725 W/m² | - |
| 1777304534 | 17.22° C | 49% | 1019.3 hPa | 0 mm | - | 707 W/m² | - |
| 1777304228 | 17.22° C | 50% | 1019.4 hPa | 0 mm | - | 688 W/m² | - |
| 1777303933 | 16.67° C | 50% | 1019.5 hPa | 0 mm | - | 669 W/m² | - |
| 1777303628 | 16.67° C | 50% | 1019.6 hPa | 0 mm | - | 681 W/m² | - |
| 1777303460 | 16.67° C | 50% | 1019.6 hPa | 0 mm | - | 660 W/m² | - |
| 1777303028 | 16.11° C | 52% | 1020 hPa | 0 mm | - | 655 W/m² | - |
* Rain latest hour (hover to see other rain measurements)
** Current wind speed in m/s (hover to see current wind gust speed)